Regional Weather Roundup
Issued by NWS

Home | Current Version | Previous Version | Graphics & Text | Print | Product List | Glossary On
Versions: 1 2 3 4 5 6 7 8 9 10 11 12 13 14 15 16 17 18 19 20 21 22 23 24 25 26 27 28 29 30 31 32 33 34 35 36 37 38 39 40 41 42 43 44 45 46 47 48 49
000
ASUS45 KBOU 171007
RWRCO

WEATHER ROUNDUP FOR COLORADO
NATIONAL WEATHER SERVICE DENVER/BOULDER CO
400 AM MDT WED SEP 17 2014

NOTE: "FAIR" INDICATES FEW OR NO CLOUDS BELOW 12000 FEET WITH NO
SIGNIFICANT WEATHER AND/OR OBSTRUCTIONS TO VISIBILITY.

COZ001>005-013-030-031-171100-
...NORTHWEST COLORADO...

CITY           SKY/WX    TMP DP  RH WIND       PRES   REMARKS
CRAIG          CLEAR     43  37  79 CALM      30.19S
HAYDEN         CLEAR     48  34  57 E13       30.20S
MEEKER         CLEAR     47  39  74 CALM      30.20F
MOUNT WERNER   NOT AVBL
STEAMBOAT SPGS CLEAR     45  36  71 CALM      30.23S
WALDEN         CLOUDY    43  32  65 CALM      30.30F
$$

COZ006>008-011-171100-
...WEST CENTRAL VALLEYS...

CITY           SKY/WX    TMP DP  RH WIND       PRES   REMARKS
GRAND JUNCTION PTCLDY    61  41  47 SE7       30.07S
MONTROSE       PTCLDY    55  42  61 S8        30.16F
EAGLE          CLEAR     46  39  76 CALM      30.28S
RIFLE          CLEAR     51  41  68 CALM      30.16S
DELTA          PTCLDY    60  42  51 NE6       30.13S HAZE
NUCLA          PTCLDY    59  37  44 E10       30.20S
$$

COZ017>023-064>068-171100-
...SOUTHWEST COLORADO...

CITY           SKY/WX    TMP DP  RH WIND       PRES   REMARKS
DURANGO        PTCLDY    53  44  71 CALM      30.23F
CORTEZ         CLEAR     53  48  83 E5        30.17F
PAGOSA SPRINGS PTCLDY    49  42  76 CALM      30.30F
TELLURIDE      NOT AVBL
WOLF CREEK PAS MOCLDY    45  36  70 N7        30.55F
$$

COZ009-010-012-014-032>034-037-058>063-171100-
...CENTRAL COLORADO...

CITY           SKY/WX    TMP DP  RH WIND       PRES   REMARKS
ASPEN          PTCLDY    49  35  58 S7          N/A
BUENA VISTA    PTCLDY    48  33  55 NW12      30.32S
COPPER MTN     CLEAR     52  28  40 CALM      30.58F
BERTHOUD PASS  FAIR      41  37  87 NW16      30.61F
COTTONWOOD PAS PTCLDY    55  30  38 W8        30.43F
GUNNISON       CLEAR     43  36  75 CALM      30.34S
KREMMLING      CLEAR     36  32  87 CALM      30.32S
LEADVILLE      CLEAR     36  29  75 NE5       30.44S
MONARCH PASS   PTCLDY    45  32  61 SW7       30.67F
SALIDA         PTCLDY    55  34  45 NW9       30.37S
SUNLIGHT       PTCLDY    55  32  41 NW3       30.50F
WILKERSON PASS NOT AVBL
$$

COZ069>075-171100-
...SAN LUIS VALLEY/SANGRE DE CRISTO MOUNTAINS...

CITY           SKY/WX    TMP DP  RH WIND       PRES   REMARKS
ALAMOSA        MOCLDY    47  41  80 S5        30.28F
LA VETA PASS   NOT AVBL
SAGUACHE       MOCLDY    50  32  50 N7        30.32F
$$

COZ035-036-038>040-171100-
...NORTHERN COLORADO FRONT RANGE...

CITY           SKY/WX    TMP DP  RH WIND       PRES   REMARKS
DENVER INTL AP PTCLDY    60  39  45 SW12      30.08S
DMNS CITY PARK   N/A     60  41  49 SW3       30.08S
AURORA         PTCLDY    59  39  48 SW9       30.10F
FRONT RANGE AP CLEAR     64  37  36 SW13      30.09S
ERIE MUNI ARPT CLEAR     49  44  81 SW5       30.07S
BOULDER MUN AP CLEAR     55  43  62 CALM      30.07S
CENTENNIAL     PTCLDY    59  38  45 S7        30.11F
BROOMFIELD     CLEAR     61  36  39 CALM      30.10S
FORT COLLINS   CLEAR     55  43  62 N3        30.07F
LONGMONT       CLEAR     52  44  76 CALM      30.08S HAZE
$$

COZ041-046-047-076>085-087-088-171100-
...PIKES PEAK/PALMER DIVIDE AND SOUTHERN FOOTHILLS...

CITY           SKY/WX    TMP DP  RH WIND       PRES   REMARKS
COLO. SPRINGS  PTCLDY    56  38  50 N8        30.16F
A. F. ACADEMY  PTCLDY    47  38  70 N13       30.18F
ELLICOTT       NOT AVBL
FALCON         PTCLDY    51  39  63 W8        30.21S
FORT CARSON    MOCLDY    57  39  51 NW9       30.13F
LIMON          CLEAR     45  41  86 N5        30.10F
MONUMENT HILL  CLEAR     50  36  57 SW9       30.20S
TRINIDAD       MOCLDY    60  47  61 W14       30.13F
$$

COZ042>045-048>051-090-091-171100-
...NORTHEAST COLORADO...

CITY           SKY/WX    TMP DP  RH WIND       PRES   REMARKS
GREELEY ARPT   CLEAR     48  37  66 NW6       30.06S
AKRON          CLEAR     53  44  71 NW5       30.04S
BURLINGTON     CLEAR     55  47  74 W5        30.01F
WRAY           CLEAR     53  48  82 CALM      29.98S
STERLING       CLEAR     50  46  87 SW3       30.00F
HOLYOKE        CLEAR     54  46  76 NW5       29.98F
FORT MORGAN    CLEAR     54  41  63 CALM      30.04S
$$

COZ086-089-092>099-171100-
...SOUTHEAST COLORADO...

CITY           SKY/WX    TMP DP  RH WIND       PRES   REMARKS
PUEBLO         CLOUDY    59  39  47 CALM      30.06F
LA JUNTA       MOCLDY    55  47  74 W7        30.02F
LAMAR          PTCLDY    53  50  89 SW6       29.98S
SPRINGFIELD      N/A     57  51  80 W5        30.02F
$$



USA.gov is the U.S. government's official web portal to all federal, state and local government web resources and services.